Lapse_Rate
6.5 6.5 6.5 6.5 6.5 6.5 6.5 6.5 6.5 6.5 6.5 6.5 6.5 6.5 6.6 7.3 7.5 7.5 7.7 7.9 8.2 8.3 8.2 7.2 3.5 3.9 4.3 3.6 3.7 6.3 7.0 7.2 7.7 8.1 8.3 7.1 7.2 7.3 6.6 6.1 5.6 5.5 5.2 4.7
6.5 6.5 6.5 6.5 6.5 6.5 6.5 6.5 6.5 6.5 6.5 6.5 6.5 7.1 6.9 7.2 7.4 7.4 7.6 8.0 8.2 8.4 8.4 5.9 3.8 3.2 3.8 4.5 4.4 4.1 5.0 7.4 7.7 6.9 7.4 7.4 7.0 6.5 6.5 6.8 7.0 7.2 6.3 4.7
6.5 6.5 6.5 6.5 6.5 6.5 6.5 6.5 6.5 6.5 6.5 6.5 6.5 6.5 6.6 7.0 7.3 7.5 7.8 8.0 8.2 8.4 8.4 7.3 4.7 3.4 3.1 3.2 3.8 5.0 3.5 5.6 6.8 6.7 6.3 6.8 7.4 6.8 6.5 6.1 6.2 5.9 5.6 5.2
6.5 6.5 6.5 6.5 6.5 6.5 6.5 6.5 6.5 6.5 6.5 6.5 6.6 6.9 7.2 7.4 7.6 7.7 8.0 8.2 8.4 8.5 8.6 7.9 6.5 3.9 3.2 2.1 3.3 4.1 3.0 2.4 2.4 4.1 6.3 7.0 6.8 7.1 7.3 7.0 6.0 5.5 5.5 5.3
6.5 6.5 6.5 6.5 6.5 6.5 6.5 6.5 6.5 6.5 6.5 6.5 7.1 7.4 7.1 8.0 8.3 8.2 8.3 8.6 8.7 8.9 8.8 8.8 6.7 6.6 3.7 2.3 1.6 2.0 1.4 1.7 1.1 1.1 2.0 3.5 6.5 6.6 7.4 7.3 6.6 6.0 5.3 5.0
6.5 6.5 6.5 6.5 6.5 7.0 6.5 6.5 6.5 6.5 6.5 6.5 6.8 6.5 6.5 7.9 8.3 8.4 8.6 8.7 8.8 8.9 8.9 8.6 8.0 8.7 3.6 2.6 2.0 1.3 1.2 0.7 1.1 0.0 -0.1 1.3 1.4 6.0 6.3 7.3 6.9 5.3 4.5 3.5
6.5 6.5 6.5 6.5 6.5 7.1 6.5 6.5 6.8 6.8 6.8 6.8 6.5 6.6 7.0 8.0 8.3 8.5 8.6 8.6 8.9 8.9 8.8 8.4 8.8 8.8 7.3 5.6 1.6 3.0 3.5 2.4 1.3 0.5 -0.8 -0.3 -0.2 1.7 4.4 2.7 0.2 -1.3 -2.8 -3.1
6.5 6.5 6.5 7.0 6.7 6.5 6.6 7.2 6.9 7.0 6.9 7.1 7.3 7.4 7.7 8.1 8.1 8.0 8.4 8.6 8.7 8.7 8.7 8.4 7.2 7.5 8.4 5.2 4.4 3.7 3.1 2.3 1.4 0.3 -0.2 -1.3 -1.1 -1.6 -1.3 -1.5 -2.8 -3.6 -3.9 -4.0
6.5 6.5 6.7 7.4 6.9 7.4 7.8 7.0 7.1 7.3 7.6 7.6 7.6 7.6 7.9 7.8 8.0 8.0 8.5 8.6 8.7 8.8 8.7 8.1 7.5 6.1 7.2 5.3 5.4 3.9 3.3 2.8 2.2 1.3 0.4 -1.2 -1.8 -2.2 -2.9 -3.1 -3.4 -3.9 -3.7 -4.0
6.5 6.5 6.5 7.1 7.2 7.7 7.7 7.3 7.2 7.8 7.9 7.9 7.8 7.9 8.0 8.2 8.4 8.4 7.9 8.0 8.0 8.7 8.5 8.3 8.2 7.2 6.0 5.5 6.2 4.6 3.2 2.2 2.1 0.7 0.2 -0.6 -1.5 -1.5 -1.4 -2.2 -2.5 -2.8 -2.9 -2.9
6.5 6.6 7.0 7.0 7.1 7.0 7.3 7.4 7.7 8.2 8.2 8.1 8.2 8.1 8.2 8.2 8.4 8.4 8.5 8.6 7.8 7.3 8.3 8.5 7.6 5.1 4.5 5.9 5.8 4.3 3.3 3.0 2.6 2.1 1.1 0.3 -0.7 0.2 0.2 -0.1 0.4 -1.3 -1.5 -1.4
6.5 7.1 7.0 7.2 7.0 6.8 5.6 6.1 6.4 8.0 7.9 8.2 8.4 8.2 8.3 8.2 8.3 8.4 8.3 8.3 7.2 6.1 6.7 6.4 5.9 5.0 4.8 5.1 5.7 4.7 3.7 3.3 3.3 3.3 2.8 2.6 2.1 1.2 1.4 0.9 0.8 0.4 -0.2 -0.9
7.0 6.9 7.0 6.6 7.0 6.9 6.0 5.4 5.0 5.3 5.4 7.1 8.2 8.4 8.3 7.6 4.8 4.2 4.3 3.8 3.5 3.8 4.3 3.7 3.4 3.4 3.9 4.4 4.7 4.8 4.5 4.6 4.5 4.7 4.5 4.0 3.4 3.1 2.8 3.7 3.3 2.7 2.2 2.1
6.3 5.9 6.9 6.9 7.1 6.3 6.9 6.1 5.5 7.8 6.7 5.6 8.0 8.3 7.6 5.7 4.5 3.3 2.6 3.1 2.9 3.0 2.7 2.8 3.1 2.6 3.3 4.2 4.2 4.6 4.8 5.0 5.2 5.3 4.8 4.7 4.9 5.3 5.5 5.6 6.6 6.8 5.8 4.7
7.9 8.0 7.2 6.9 7.2 6.7 7.2 7.3 7.2 7.9 7.3 5.9 6.4 8.0 7.8 6.6 5.0 3.6 3.4 3.0 3.5 2.7 2.5 2.9 2.9 2.8 3.6 4.2 4.3 4.6 5.0 5.3 5.4 5.3 5.0 4.7 5.2 6.1 6.5 5.7 4.9 4.8 4.6 4.2
7.9 8.1 8.2 8.0 8.1 8.2 8.0 8.0 7.9 8.0 6.7 5.5 5.4 4.7 4.8 6.0 5.5 4.7 4.2 3.0 3.1 2.6 2.7 3.5 3.1 2.8 3.4 4.5 4.8 4.6 4.7 5.3 6.6 6.8 6.8 6.7 6.9 6.9 6.9 7.4 7.2 6.1 5.5 5.4
7.5 7.3 7.7 7.7 8.0 8.0 8.0 7.8 7.8 8.1 8.0 7.7 6.5 5.4 4.9 4.5 4.5 3.9 3.1 2.8 2.7 3.2 3.7 3.5 3.4 3.3 3.8 4.9 5.6 5.8 5.6 5.8 6.6 7.5 7.6 7.8 7.7 7.4 7.1 6.2 5.2 4.6 3.7 3.4
8.4 8.3 8.4 8.3 8.1 8.1 8.2 8.3 7.6 7.6 6.8 5.7 4.7 3.9 3.7 4.3 4.5 3.8 3.5 3.8 4.1 3.6 3.2 3.2 3.6 4.1 3.8 4.3 5.7 6.3 6.3 6.4 6.3 5.9 6.3 6.6 6.7 6.3 5.3 4.7 4.5 3.7 3.1 3.0
8.6 8.4 8.4 8.2 8.3 8.3 7.4 6.5 5.6 5.2 5.3 5.2 5.1 4.7 4.5 4.4 4.7 4.6 4.7 5.3 5.7 6.6 4.0 4.0 3.6 4.1 3.7 3.2 5.0 5.4 5.3 5.2 5.2 5.0 4.4 4.4 4.7 4.7 4.6 4.7 4.6 4.6 4.4 4.1
8.5 8.5 7.6 6.8 5.5 5.1 4.8 4.4 5.2 5.3 4.7 5.8 5.4 5.3 5.0 4.4 4.7 5.0 5.2 4.7 4.5 4.9 4.7 4.4 4.7 4.3 3.9 3.8 4.5 4.9 4.9 4.6 4.5 4.5 4.4 4.0 3.9 4.3 4.8 4.8 4.6 4.2 3.7 3.3
5.9 6.3 5.7 5.7 5.1 4.7 4.8 5.7 5.4 5.2 4.5 4.4 5.3 4.7 4.8 5.0 5.0 5.7 7.9 8.3 5.3 4.9 5.0 4.7 4.8 5.1 4.7 4.8 5.4 4.7 4.5 4.4 4.4 4.6 4.3 3.7 3.8 4.1 4.1 4.1 3.8 3.6 3.3 3.0
5.7 5.3 4.7 4.8 4.9 4.4 4.1 4.6 4.9 4.7 5.0 5.0 4.8 5.3 6.0 6.4 6.1 5.6 4.9 6.8 6.2 5.1 5.8 5.4 4.6 2.9 4.0 4.2 4.9 4.6 4.5 4.3 4.3 4.3 4.2 4.7 4.5 4.4 4.4 4.4 4.0 3.9 3.8 3.7
6.3 6.5 5.5 4.7 4.8 5.0 4.9 4.8 4.9 5.0 5.2 5.3 5.6 6.4 7.2 7.1 7.3 8.3 8.2 6.4 6.7 5.4 6.0 4.7 3.4 3.3 3.9 4.8 4.8 5.2 5.0 4.6 4.6 4.6 4.7 4.8 4.9 4.7 4.5 4.2 4.0 3.8 3.5 3.4
6.0 5.9 5.8 5.8 6.2 6.8 6.8 5.8 6.1 5.7 5.6 6.0 5.4 5.4 8.1 8.5 8.3 8.0 7.2 5.6 4.9 5.2 4.6 4.4 4.2 4.2 4.6 5.1 5.8 5.5 5.0 4.9 4.9 4.8 4.4 4.3 4.3 4.0 4.0 3.9 3.9 3.6 3.0 3.0
5.8 5.7 5.9 6.5 8.0 8.3 6.7 6.0 6.9 6.8 6.8 7.0 6.6 6.8 6.6 7.0 8.0 7.4 7.3 6.5 5.7 6.4 5.7 4.4 4.7 5.1 5.6 5.5 5.6 5.8 5.3 5.0 4.9 4.9 4.6 4.5 4.4 4.4 4.2 4.1 4.0 3.9 3.5 3.5
8.4 8.6 8.3 6.1 7.7 8.7 8.7 8.6 8.7 8.6 8.8 8.5 8.4 7.9 7.1 7.0 6.9 7.2 6.5 6.2 6.2 5.9 5.9 5.6 5.5 5.7 5.4 5.1 5.0 4.9 4.9 4.9 4.8 4.4 4.3 4.4 4.3 4.1 3.9 3.5 3.5 3.5 3.3 2.9
7.8 7.1 8.5 8.6 8.7 8.8 8.7 8.5 8.7 8.6 8.5 8.7 8.6 8.6 8.3 7.3 6.8 7.0 6.6 6.9 6.5 6.1 5.9 5.7 5.5 5.1 5.2 5.2 4.9 4.8 4.9 4.7 4.7 4.8 4.4 3.9 3.8 3.7 3.5 3.5 3.2 2.6 2.1 1.7
Wind_Speed
15 19 11 2 12 10 10 20 17 16 15 12 14 12 13 12 10 9 9 10 11 12 11 11 11 10 11 11 11 4 11 10 10 11 11 10 10 9 10 10 10 10 9 11
18 9 12 3 4 3 12 14 16 12 19 11 12 9 11 11 11 9 8 10 10 12 11 11 11 9 9 11 12 9 5 7 10 8 11 11 11 10 10 10 11 11 12 10
7 14 5 4 9 2 3 3 4 10 3 5 12 12 10 10 9 9 9 9 10 11 10 10 9 8 8 10 11 11 10 4 4 9 9 10 11 11 10 10 10 11 11 11
10 11 3 4 10 3 5 4 5 5 6 8 12 12 13 9 10 9 9 10 10 9 9 10 11 11 10 10 9 11 11 11 11 7 8 10 10 11 11 10 11 9 10 12
5 8 2 5 9 9 8 6 11 4 9 14 14 15 13 10 11 10 10 8 9 8 9 10 11 10 10 11 11 12 13 11 11 10 8 7 10 11 12 10 10 10 8 8
6 5 3 5 15 16 4 3 6 6 10 11 10 5 5 6 8 9 11 10 9 8 9 11 12 10 10 11 10 11 12 12 10 9 9 8 7 8 8 11 12 8 5 2
5 3 6 14 20 15 4 8 12 9 12 8 7 5 6 3 8 10 10 11 9 9 9 11 10 9 9 8 10 9 9 8 10 10 9 8 9 5 4 4 6 7 8 8
4 3 4 20 10 10 12 15 7 11 5 6 9 9 7 8 9 11 10 10 10 9 9 10 11 9 8 10 8 7 7 9 10 10 8 7 6 5 6 7 8 7 8 8
5 6 12 13 12 13 14 4 8 7 3 7 9 9 8 8 7 8 9 9 10 9 9 10 11 10 9 10 9 7 7 8 8 8 7 8 8 7 6 8 7 7 7 8
7 4 10 12 14 13 12 13 10 12 10 9 10 8 7 7 7 7 8 9 9 10 10 10 10 10 10 10 8 9 9 9 8 11 11 10 8 7 6 6 7 7 8 9
10 9 10 14 14 13 12 12 13 13 14 11 10 9 7 7 7 7 6 8 9 9 9 11 11 12 12 11 9 9 9 8 9 9 11 12 13 8 7 7 6 9 8 8
3 8 2 7 11 11 11 11 11 10 13 13 10 9 7 7 7 7 8 9 9 10 10 11 11 12 12 11 10 9 9 8 8 8 8 9 10 13 28 23 25 24 21 14
4 4 9 6 13 10 11 9 9 8 11 11 10 8 8 7 8 9 9 9 9 9 9 10 10 11 11 10 10 10 9 8 7 8 8 9 10 11 14 21 30 29 29 27
10 7 2 11 7 11 7 6 8 8 9 9 8 6 6 6 7 8 9 8 8 9 10 10 10 10 10 9 9 10 11 12 8 8 8 9 9 10 10 12 13 13 21 21
6 7 5 5 6 10 10 7 7 8 8 8 8 7 7 7 7 8 7 6 6 9 10 10 10 10 9 9 10 10 8 7 8 9 10 12 11 12 12 13 12 12 12 16
2 6 6 7 8 9 9 9 7 7 8 7 7 7 7 6 7 8 8 10 9 10 10 9 9 8 8 7 8 8 10 11 9 9 9 9 9 10 10 10 11 10 9 9
4 6 8 8 8 8 8 7 8 7 7 5 4 4 5 6 7 7 8 8 8 9 9 9 9 7 6 6 7 7 7 8 10 8 8 8 9 9 9 9 10 9 9 9
5 4 6 6 7 7 6 7 7 8 7 6 5 5 5 5 5 6 6 6 6 8 10 10 9 7 8 8 7 7 7 7 8 8 8 8 8 8 8 9 10 10 9 10
6 5 6 7 7 6 6 7 7 7 6 4 3 5 5 6 6 6 5 6 6 7 10 9 9 8 8 9 6 6 7 8 8 8 8 9 8 8 8 8 9 9 9 8
7 7 7 7 7 8 7 7 7 5 6 4 3 5 6 6 6 5 6 8 8 6 7 7 7 7 8 8 6 6 7 8 8 7 7 7 8 8 8 10 9 9 9 8
7 7 6 6 6 7 6 5 5 6 6 6 6 6 6 6 6 4 2 4 7 7 6 8 7 5 5 5 5 6 6 7 7 7 7 8 8 8 8 8 8 8 8 8
5 5 5 5 6 7 7 7 7 6 7 7 7 6 4 6 5 7 7 6 5 8 5 5 6 9 6 6 6 6 7 7 6 6 7 7 7 8 8 8 8 8 8 7
4 5 5 5 5 5 6 7 7 7 7 7 7 6 6 5 5 4 4 7 5 7 6 6 7 8 8 6 6 6 7 7 7 7 7 7 7 7 7 8 7 7 7 7
4 5 5 4 3 4 6 6 5 6 5 6 6 6 5 3 4 5 4 6 8 8 8 7 8 9 8 6 7 7 7 7 7 7 8 8 7 7 7 7 7 7 6 7
3 3 3 3 3 4 3 4 2 3 4 5 5 5 6 5 4 4 4 5 7 6 7 10 11 10 7 7 7 7 7 7 7 7 7 7 7 7 7 6 6 6 5 5
1 3 4 5 4 3 3 2 2 2 1 3 4 4 4 4 4 4 5 6 6 7 7 6 7 7 7 8 8 8 7 7 7 7 7 7 7 6 6 6 6 6 6 6
2 1 2 2 3 2 3 2 1 3 2 2 3 3 4 4 4 4 5 5 5 6 6 6 7 8 7 7 7 7 6 7 8 6 6 6 6 6 6 6 6 7 6 6
Wind_Direction
321 318 335 213 166 202 254 240 236 232 234 186 184 176 160 154 150 143 104 77 61 58 42 29 47 40 15 8 2 247 193 194 203 209 201 194 195 181 173 175 172 170 165 176
313 278 334 149 138 198 182 236 246 252 249 234 159 143 157 151 140 119 91 78 67 57 37 41 15 32 22 15 359 334 335 216 198 207 203 196 203 194 189 187 185 179 179 169
297 336 322 93 353 355 192 162 279 216 248 173 196 176 157 152 124 96 76 59 49 46 30 22 21 356 29 32 4 351 14 321 226 194 206 207 203 199 201 195 190 190 183 179
301 316 50 36 6 331 314 314 316 274 153 128 95 77 65 69 97 80 66 56 45 38 26 25 13 7 13 40 15 357 19 20 10 346 216 201 203 204 204 203 197 197 196 193
309 315 287 52 11 360 342 320 329 224 139 121 125 108 72 65 65 65 58 49 48 40 35 28 19 10 20 27 20 2 1 5 356 348 332 335 203 199 202 204 200 198 192 192
324 316 352 34 340 328 275 223 317 162 140 144 174 155 93 49 55 63 58 45 39 38 41 36 16 11 25 27 27 7 352 341 343 346 342 324 319 243 206 201 201 184 160 111
302 279 289 0 336 322 262 9 329 99 75 65 85 71 94 85 59 54 49 42 32 38 40 35 23 15 28 32 24 357 336 347 347 351 346 330 309 282 209 121 106 94 89 67
318 285 281 3 350 5 325 319 313 104 132 147 105 114 100 65 51 41 37 30 27 35 34 29 24 19 26 21 8 10 358 3 7 6 351 353 5 24 70 94 99 91 94 79
308 321 325 352 340 336 334 333 322 149 151 134 121 89 78 71 63 49 33 27 24 25 30 29 22 18 12 5 6 16 31 31 18 27 19 27 41 40 64 82 96 93 92 90
305 72 27 19 4 9 17 29 50 62 93 101 96 89 84 68 54 45 34 25 21 23 24 21 22 20 14 5 2 31 37 36 36 42 41 34 44 40 57 75 92 98 99 98
285 343 341 21 5 3 33 42 54 65 71 76 84 73 69 62 52 52 41 37 29 26 23 23 21 19 15 5 17 42 49 47 50 53 56 55 52 49 60 48 87 109 103 103
342 355 360 17 358 8 44 30 28 59 70 57 61 70 65 60 48 40 40 39 40 33 27 23 25 24 17 11 25 44 52 48 45 55 63 71 75 73 64 73 77 82 88 96
324 303 38 351 17 14 42 42 49 44 57 69 50 51 51 57 44 45 44 41 41 40 32 29 28 29 18 23 38 46 61 59 58 61 67 75 76 81 85 74 80 86 92 97
19 359 360 20 358 359 18 42 56 60 63 62 56 50 54 54 44 45 40 36 41 46 41 39 37 30 19 30 53 65 69 65 74 73 69 72 74 80 87 93 92 84 78 91
32 47 29 348 7 18 16 26 45 40 37 49 43 38 42 39 40 33 27 24 46 54 43 38 36 33 20 40 55 62 71 74 79 81 82 86 89 92 95 94 95 96 95 85
321 28 15 18 11 12 21 20 29 24 28 25 35 39 36 41 50 46 34 32 36 35 33 38 40 28 22 40 66 77 73 75 87 95 96 101 104 105 104 97 95 95 93 95
6 1 358 6 2 6 12 14 15 11 19 22 33 44 52 51 58 48 37 33 43 39 32 33 38 37 49 46 69 79 80 78 80 87 89 93 95 95 97 101 97 90 80 74
38 18 7 6 345 348 4 12 9 5 9 6 24 49 57 54 53 49 38 32 44 47 30 27 23 39 45 49 58 74 82 85 87 89 93 94 96 97 96 97 97 97 94 84
34 23 23 24 359 360 6 9 5 355 356 7 49 68 67 58 49 45 37 29 29 33 26 23 23 38 49 38 50 73 88 93 91 88 96 104 97 93 95 97 100 101 102 98
44 36 30 30 27 16 11 9 352 16 6 28 80 78 74 60 48 51 57 54 33 17 14 22 33 46 52 54 55 77 84 89 96 98 93 92 91 91 93 95 103 103 99 97
46 41 39 29 32 38 28 14 21 28 28 35 59 61 58 53 41 354 29 52 29 17 22 38 35 46 55 61 70 82 91 99 103 107 103 105 110 107 107 106 104 104 105 105
58 52 43 35 42 37 25 25 35 40 45 53 57 62 77 76 74 70 45 24 37 10 32 40 41 39 55 61 71 78 84 90 94 99 102 108 112 113 111 111 109 109 108 106
67 67 65 51 41 46 47 40 40 39 49 47 48 48 45 42 17 3 50 24 34 28 51 51 53 60 63 72 79 84 89 95 99 102 106 109 111 113 116 117 113 113 114 113
65 60 60 60 62 61 54 49 42 51 49 62 56 32 20 61 71 55 80 70 53 52 51 50 57 61 70 78 83 89 93 96 98 99 99 101 103 106 110 113 111 105 107 105
57 53 42 27 35 49 33 35 49 58 54 60 53 55 45 41 47 50 50 63 51 65 71 59 59 61 70 76 80 84 85 88 95 99 98 99 102 105 106 107 109 108 106 105
58 40 46 27 24 23 26 3 34 36 57 78 67 62 67 64 70 69 69 61 64 68 67 63 62 70 73 76 80 83 87 88 86 87 93 93 97 99 102 110 116 111 107 105
82 353 100 89 64 47 29 33 59 79 62 70 84 70 70 73 69 73 72 74 73 74 71 68 67 67 73 76 78 77 79 78 75 87 89 92 94 99 106 109 107 107 111 119